Location: Bastogne Gables
(35.1554°N, 78.9900°W)
Time: 03:46:35
(UTC+00:00)

FengYun 1-2 T - Pass Details

Date: 29 October 2020
Orbit: 846 x 882 km, 98.7° (Epoch: 26 November)

Event Time Altitude Azimuth Distance (km) Brightness Sun altitude
Rises 22:53:57 0° 158° (SSE) 3,466 7.3 -6.8°
Reaches altitude 10° 22:56:21 10° 156° (SSE) 2,530 6.6 -7.3°
Maximum altitude 23:01:57 68° 74° (ENE) 942 4.3 -8.4°
Drops below altitude 10° 23:07:32 10° 353° (N) 2,533 6.7 -9.5°
Sets 23:09:56 0° 351° (N) 3,470 7.4 -10.0°
